Time,TemperatureF,DewpointF,PressureIn,WindDirection,WindDirectionDegrees,WindSpeedMPH,WindSpeedGustMPH,Humidity,HourlyPrecipIn,Conditions,Clouds,dailyrainin,SoftwareType,DateUTC
2013-05-12 00:00:00,56.2,38.3,30.00,NE,41,2.0,3.0,51,0.00,,,0.00,Wunderground v.1.15,2013-05-12 06:00:00,
2013-05-12 00:05:00,55.7,38.3,29.99,NE,42,3.0,3.0,52,0.00,,,0.00,Wunderground v.1.15,2013-05-12 06:05:00,
2013-05-12 00:15:00,54.9,38.1,30.00,NE,42,0.0,1.0,53,0.00,,,0.00,Wunderground v.1.15,2013-05-12 06:15:00,
2013-05-12 00:20:00,54.6,37.8,30.00,NE,42,0.0,0.0,53,0.00,,,0.00,Wunderground v.1.15,2013-05-12 06:20:00,
2013-05-12 00:30:00,54.3,38.5,30.00,NE,41,0.0,0.0,55,0.00,,,0.00,Wunderground v.1.15,2013-05-12 06:30:00,
2013-05-12 00:35:00,53.4,38.5,30.00,NE,41,0.0,0.0,57,0.00,,,0.00,Wunderground v.1.15,2013-05-12 06:35:00,
2013-05-12 00:40:00,52.3,38.0,30.01,NE,42,0.0,0.0,58,0.00,,,0.00,Wunderground v.1.15,2013-05-12 06:40:00,
2013-05-12 00:45:00,51.9,38.0,30.01,NE,42,0.0,0.0,59,0.00,,,0.00,Wunderground v.1.15,2013-05-12 06:45:00,
2013-05-12 00:49:00,51.9,38.0,30.01,NE,42,0.0,0.0,59,0.00,,,0.00,Wunderground v.1.15,2013-05-12 06:49:00,
2013-05-12 00:55:00,51.9,38.4,30.01,NE,42,0.0,0.0,60,0.00,,,0.00,Wunderground v.1.15,2013-05-12 06:55:00,
2013-05-12 01:00:00,51.9,38.9,30.01,NE,42,0.0,0.0,61,0.00,,,0.00,Wunderground v.1.15,2013-05-12 07:00:00,
2013-05-12 01:05:00,52.1,39.1,30.00,NE,41,0.0,0.0,61,0.00,,,0.00,Wunderground v.1.15,2013-05-12 07:05:00,
2013-05-12 01:15:00,52.8,38.4,30.01,NE,42,0.0,0.0,58,0.00,,,0.00,Wunderground v.1.15,2013-05-12 07:15:00,
2013-05-12 01:20:00,52.6,39.5,30.01,NNE,20,1.0,3.0,61,0.00,,,0.00,Wunderground v.1.15,2013-05-12 07:20:00,
2013-05-12 01:30:00,51.2,39.0,30.02,NNE,20,1.0,1.0,63,0.00,,,0.00,Wunderground v.1.15,2013-05-12 07:30:00,
2013-05-12 01:35:00,50.8,38.7,30.02,NNE,19,0.0,1.0,63,0.00,,,0.00,Wunderground v.1.15,2013-05-12 07:35:00,
2013-05-12 01:40:00,50.6,38.9,30.02,NNE,15,0.0,2.0,64,0.00,,,0.00,Wunderground v.1.15,2013-05-12 07:40:00,
2013-05-12 01:45:00,50.4,38.7,30.03,NNE,17,1.0,2.0,64,0.00,,,0.00,Wunderground v.1.15,2013-05-12 07:45:00,
2013-05-12 01:50:00,50.4,38.7,30.03,NNE,17,1.0,1.0,64,0.00,,,0.00,Wunderground v.1.15,2013-05-12 07:50:00,
2013-05-12 01:55:00,50.5,38.4,30.03,NNE,17,0.0,1.0,63,0.00,,,0.00,Wunderground v.1.15,2013-05-12 07:55:00,
2013-05-12 02:00:00,50.8,38.2,30.03,NNE,17,0.0,0.0,62,0.00,,,0.00,Wunderground v.1.15,2013-05-12 08:00:00,
2013-05-12 02:05:00,50.6,38.5,30.02,NNE,17,0.0,0.0,63,0.00,,,0.00,Wunderground v.1.15,2013-05-12 08:05:00,
2013-05-12 02:15:00,49.7,38.0,30.02,NNE,17,0.0,0.0,64,0.00,,,0.00,Wunderground v.1.15,2013-05-12 08:15:00,
2013-05-12 02:25:00,49.7,38.4,30.02,NNE,15,0.0,0.0,65,0.00,,,0.00,Wunderground v.1.15,2013-05-12 08:25:00,
2013-05-12 02:35:00,50.0,38.7,30.02,NNE,17,0.0,0.0,65,0.00,,,0.00,Wunderground v.1.15,2013-05-12 08:35:00,
2013-05-12 02:40:00,50.2,38.9,30.02,NNE,17,0.0,0.0,65,0.00,,,0.00,Wunderground v.1.15,2013-05-12 08:40:00,
2013-05-12 02:45:00,50.5,39.2,30.02,NNE,17,1.0,1.0,65,0.00,,,0.00,Wunderground v.1.15,2013-05-12 08:45:00,
2013-05-12 02:50:00,50.5,39.2,30.02,NNE,17,2.0,2.0,65,0.00,,,0.00,Wunderground v.1.15,2013-05-12 08:50:00,
2013-05-12 03:00:00,50.5,39.6,30.02,NNE,22,0.0,0.0,66,0.00,,,0.00,Wunderground v.1.15,2013-05-12 09:00:00,
2013-05-12 03:05:00,50.2,39.7,30.01,NNE,21,0.0,0.0,67,0.00,,,0.00,Wunderground v.1.15,2013-05-12 09:05:00,
2013-05-12 03:15:00,49.8,39.7,30.02,NNE,13,0.0,0.0,68,0.00,,,0.00,Wunderground v.1.15,2013-05-12 09:15:00,
2013-05-12 03:20:00,49.8,39.7,30.02,NNE,12,0.0,0.0,68,0.00,,,0.00,Wunderground v.1.15,2013-05-12 09:20:00,
2013-05-12 03:25:00,49.8,40.0,30.02,North,11,0.0,0.0,69,0.00,,,0.00,Wunderground v.1.15,2013-05-12 09:25:00,
2013-05-12 03:35:00,49.4,40.0,30.02,NNE,12,0.0,0.0,70,0.00,,,0.00,Wunderground v.1.15,2013-05-12 09:35:00,
2013-05-12 03:40:00,49.6,40.6,30.02,North,11,0.0,0.0,71,0.00,,,0.00,Wunderground v.1.15,2013-05-12 09:40:00,
2013-05-12 03:45:00,49.7,40.3,30.02,NNE,12,0.0,0.0,70,0.00,,,0.00,Wunderground v.1.15,2013-05-12 09:45:00,
2013-05-12 03:50:00,49.9,40.5,30.02,NNE,12,0.0,0.0,70,0.00,,,0.00,Wunderground v.1.15,2013-05-12 09:50:00,
2013-05-12 03:55:00,49.9,40.1,30.02,NNE,12,0.0,0.0,69,0.00,,,0.00,Wunderground v.1.15,2013-05-12 09:55:00,
2013-05-12 04:00:00,49.8,40.0,30.02,North,11,0.0,0.0,69,0.00,,,0.00,Wunderground v.1.15,2013-05-12 10:00:00,
2013-05-12 04:05:00,49.7,40.3,30.02,North,11,0.0,0.0,70,0.00,,,0.00,Wunderground v.1.15,2013-05-12 10:05:00,
2013-05-12 04:15:00,49.6,40.2,30.02,North,11,0.0,0.0,70,0.00,,,0.00,Wunderground v.1.15,2013-05-12 10:15:00,
2013-05-12 04:20:00,49.4,40.0,30.02,NNE,12,0.0,0.0,70,0.00,,,0.00,Wunderground v.1.15,2013-05-12 10:20:00,
2013-05-12 04:25:00,49.1,40.1,30.02,NNE,12,0.0,0.0,71,0.00,,,0.00,Wunderground v.1.15,2013-05-12 10:25:00,
2013-05-12 04:30:00,48.7,40.1,30.02,NNE,12,0.0,0.0,72,0.00,,,0.00,Wunderground v.1.15,2013-05-12 10:30:00,
2013-05-12 04:35:00,48.3,39.7,30.03,NNE,12,0.0,0.0,72,0.00,,,0.00,Wunderground v.1.15,2013-05-12 10:35:00,
2013-05-12 04:40:00,47.9,39.7,30.03,NNE,12,0.0,0.0,73,0.00,,,0.00,Wunderground v.1.15,2013-05-12 10:40:00,
2013-05-12 04:45:00,47.6,39.7,30.03,NNE,12,0.0,0.0,74,0.00,,,0.00,Wunderground v.1.15,2013-05-12 10:45:00,
2013-05-12 04:50:00,47.1,38.9,30.03,North,11,0.0,0.0,73,0.00,,,0.00,Wunderground v.1.15,2013-05-12 10:50:00,
2013-05-12 04:55:00,46.7,38.9,30.04,North,11,0.0,0.0,74,0.00,,,0.00,Wunderground v.1.15,2013-05-12 10:55:00,
2013-05-12 05:05:00,46.1,39.0,30.05,NNE,12,0.0,0.0,76,0.00,,,0.00,Wunderground v.1.15,2013-05-12 11:05:00,
2013-05-12 05:15:00,45.9,39.4,30.05,NNE,12,0.0,0.0,78,0.00,,,0.00,Wunderground v.1.15,2013-05-12 11:15:00,
2013-05-12 05:20:00,45.7,39.2,30.05,NNE,12,0.0,0.0,78,0.00,,,0.00,Wunderground v.1.15,2013-05-12 11:20:00,
2013-05-12 05:25:00,45.8,39.3,30.05,North,11,0.0,0.0,78,0.00,,,0.00,Wunderground v.1.15,2013-05-12 11:25:00,
2013-05-12 05:30:00,46.0,39.5,30.05,North,11,0.0,0.0,78,0.00,,,0.00,Wunderground v.1.15,2013-05-12 11:30:00,
2013-05-12 05:40:00,45.9,39.1,30.05,North,11,0.0,0.0,77,0.00,,,0.00,Wunderground v.1.15,2013-05-12 11:40:00,
2013-05-12 05:45:00,45.9,39.4,30.05,NNE,12,0.0,2.0,78,0.00,,,0.00,Wunderground v.1.15,2013-05-12 11:45:00,
2013-05-12 05:50:00,45.8,39.3,30.05,NNE,12,1.0,1.0,78,0.00,,,0.00,Wunderground v.1.15,2013-05-12 11:50:00,
2013-05-12 05:55:00,45.7,39.2,30.06,NNE,12,1.0,1.0,78,0.00,,,0.00,Wunderground v.1.15,2013-05-12 11:55:00,
2013-05-12 06:00:00,45.5,39.0,30.06,NNE,12,0.0,0.0,78,0.00,,,0.00,Wunderground v.1.15,2013-05-12 12:00:00,
2013-05-12 06:05:00,45.3,38.8,30.07,North,11,0.0,0.0,78,0.00,,,0.00,Wunderground v.1.15,2013-05-12 12:05:00,
2013-05-12 06:15:00,45.0,38.6,30.07,North,11,0.0,0.0,78,0.00,,,0.00,Wunderground v.1.15,2013-05-12 12:15:00,
2013-05-12 06:25:00,45.2,38.7,30.07,NNE,12,0.0,0.0,78,0.00,,,0.00,Wunderground v.1.15,2013-05-12 12:25:00,
2013-05-12 06:30:00,45.1,38.6,30.07,NNE,12,0.0,0.0,78,0.00,,,0.00,Wunderground v.1.15,2013-05-12 12:30:00,
2013-05-12 06:35:00,45.2,39.1,30.07,ENE,63,1.0,2.0,79,0.00,,,0.00,Wunderground v.1.15,2013-05-12 12:35:00,
2013-05-12 06:45:00,45.6,39.5,30.07,ENE,63,0.0,1.0,79,0.00,,,0.00,Wunderground v.1.15,2013-05-12 12:45:00,
2013-05-12 06:50:00,45.7,39.2,30.07,ENE,63,0.0,0.0,78,0.00,,,0.00,Wunderground v.1.15,2013-05-12 12:50:00,
2013-05-12 06:55:00,45.7,39.2,30.07,ENE,63,0.0,0.0,78,0.00,,,0.00,Wunderground v.1.15,2013-05-12 12:55:00,
2013-05-12 07:00:00,45.8,39.3,30.07,ENE,63,0.0,0.0,78,0.00,,,0.00,Wunderground v.1.15,2013-05-12 13:00:00,
2013-05-12 07:05:00,46.2,39.7,30.11,ENE,63,0.0,0.0,78,0.00,,,0.00,Wunderground v.1.15,2013-05-12 13:05:00,
2013-05-12 07:15:00,47.0,40.2,30.10,ENE,63,0.0,0.0,77,0.00,,,0.00,Wunderground v.1.15,2013-05-12 13:15:00,
2013-05-12 07:20:00,47.4,40.6,30.10,ENE,63,0.0,0.0,77,0.00,,,0.00,Wunderground v.1.15,2013-05-12 13:20:00,
2013-05-12 07:25:00,48.0,40.8,30.10,ENE,63,0.0,0.0,76,0.00,,,0.00,Wunderground v.1.15,2013-05-12 13:25:00,
2013-05-12 07:30:00,48.8,41.2,30.09,ENE,63,0.0,0.0,75,0.00,,,0.00,Wunderground v.1.15,2013-05-12 13:30:00,
2013-05-12 07:40:00,49.9,41.6,30.09,ENE,63,0.0,0.0,73,0.00,,,0.00,Wunderground v.1.15,2013-05-12 13:40:00,
2013-05-12 07:50:00,50.8,41.7,30.09,ENE,63,0.0,0.0,71,0.00,,,0.00,Wunderground v.1.15,2013-05-12 13:50:00,
2013-05-12 07:55:00,51.5,42.0,30.09,ENE,63,0.0,0.0,70,0.00,,,0.00,Wunderground v.1.15,2013-05-12 13:55:00,
2013-05-12 08:00:00,52.2,42.0,30.09,ENE,63,0.0,0.0,68,0.00,,,0.00,Wunderground v.1.15,2013-05-12 14:00:00,
2013-05-12 08:05:00,53.1,42.4,30.10,ENE,63,0.0,0.0,67,0.00,,,0.00,Wunderground v.1.15,2013-05-12 14:05:00,
2013-05-12 08:15:00,55.1,42.3,30.09,ENE,63,0.0,1.0,62,0.00,,,0.00,Wunderground v.1.15,2013-05-12 14:15:00,
2013-05-12 08:20:00,55.7,42.0,30.09,ENE,63,0.0,0.0,60,0.00,,,0.00,Wunderground v.1.15,2013-05-12 14:20:00,
2013-05-12 08:25:00,56.4,41.3,30.09,ENE,63,0.0,0.0,57,0.00,,,0.00,Wunderground v.1.15,2013-05-12 14:25:00,
2013-05-12 08:30:00,56.9,40.9,30.08,East,80,0.0,2.0,55,0.00,,,0.00,Wunderground v.1.15,2013-05-12 14:30:00,
2013-05-12 08:35:00,57.5,41.4,30.08,East,80,0.0,2.0,55,0.00,,,0.00,Wunderground v.1.15,2013-05-12 14:35:00,
2013-05-12 08:40:00,58.0,40.5,30.08,SSE,159,1.0,1.0,52,0.00,,,0.00,Wunderground v.1.15,2013-05-12 14:40:00,
2013-05-12 08:50:00,59.6,40.9,30.06,SSE,161,1.0,2.0,50,0.00,,,0.00,Wunderground v.1.15,2013-05-12 14:50:00,
2013-05-12 08:55:00,60.3,40.0,30.07,ENE,69,1.0,4.0,47,0.00,,,0.00,Wunderground v.1.15,2013-05-12 14:55:00,
2013-05-12 09:00:00,61.7,40.1,30.06,East,95,2.0,2.0,45,0.00,,,0.00,Wunderground v.1.15,2013-05-12 15:00:00,
2013-05-12 09:05:00,63.0,40.7,30.07,East,83,3.0,3.0,44,0.00,,,0.00,Wunderground v.1.15,2013-05-12 15:05:00,
2013-05-12 09:15:00,64.2,41.2,30.07,NE,51,3.0,5.0,43,0.00,,,0.00,Wunderground v.1.15,2013-05-12 15:15:00,
2013-05-12 09:25:00,65.4,41.1,30.06,East,98,4.0,5.0,41,0.00,,,0.00,Wunderground v.1.15,2013-05-12 15:25:00,
2013-05-12 09:30:00,66.0,41.6,30.06,ESE,110,3.0,3.0,41,0.00,,,0.00,Wunderground v.1.15,2013-05-12 15:30:00,
2013-05-12 09:35:00,66.7,41.6,30.05,East,98,2.0,3.0,40,0.00,,,0.00,Wunderground v.1.15,2013-05-12 15:35:00,
2013-05-12 09:40:00,67.0,42.5,30.05,NE,55,2.0,2.0,41,0.00,,,0.00,Wunderground v.1.15,2013-05-12 15:40:00,
2013-05-12 09:50:00,67.4,41.6,30.05,South,183,1.0,3.0,39,0.00,,,0.00,Wunderground v.1.15,2013-05-12 15:50:00,
2013-05-12 09:55:00,66.9,42.4,30.05,East,96,2.0,3.0,41,0.00,,,0.00,Wunderground v.1.15,2013-05-12 15:55:00,
2013-05-12 10:00:00,67.8,41.9,30.04,East,91,2.0,3.0,39,0.00,,,0.00,Wunderground v.1.15,2013-05-12 16:00:00,
2013-05-12 10:05:00,68.0,41.4,30.06,ENE,64,2.0,3.0,38,0.00,,,0.00,Wunderground v.1.15,2013-05-12 16:05:00,
2013-05-12 10:15:00,69.3,41.2,30.05,SE,140,2.0,2.0,36,0.00,,,0.00,Wunderground v.1.15,2013-05-12 16:15:00,
2013-05-12 10:25:00,69.6,40.7,30.04,SSE,156,2.0,2.0,35,0.00,,,0.00,Wunderground v.1.15,2013-05-12 16:25:00,
2013-05-12 10:30:00,70.0,41.1,30.04,SSE,151,1.0,2.0,35,0.00,,,0.00,Wunderground v.1.15,2013-05-12 16:30:00,
2013-05-12 10:35:00,70.3,40.6,30.04,SSE,167,2.0,2.0,34,0.00,,,0.00,Wunderground v.1.15,2013-05-12 16:35:00,
2013-05-12 10:40:00,70.2,39.7,30.04,SW,215,2.0,2.0,33,0.00,,,0.00,Wunderground v.1.15,2013-05-12 16:40:00,
2013-05-12 10:45:00,70.6,40.9,30.03,South,188,1.0,2.0,34,0.00,,,0.00,Wunderground v.1.15,2013-05-12 16:45:00,
2013-05-12 10:50:00,71.8,41.1,30.02,ENE,72,0.0,2.0,33,0.00,,,0.00,Wunderground v.1.15,2013-05-12 16:50:00,
2013-05-12 11:00:00,73.6,41.1,30.01,NW,317,0.0,3.0,31,0.00,,,0.00,Wunderground v.1.15,2013-05-12 17:00:00,
2013-05-12 11:05:00,74.2,41.6,30.03,NE,48,1.0,4.0,31,0.00,,,0.00,Wunderground v.1.15,2013-05-12 17:05:00,
2013-05-12 11:15:00,74.6,42.0,30.03,WNW,282,2.0,2.0,31,0.00,,,0.00,Wunderground v.1.15,2013-05-12 17:15:00,
2013-05-12 11:20:00,74.7,42.0,30.02,NW,313,2.0,2.0,31,0.00,,,0.00,Wunderground v.1.15,2013-05-12 17:20:00,
2013-05-12 11:30:00,75.0,42.3,30.02,WNW,292,2.0,3.0,31,0.00,,,0.00,Wunderground v.1.15,2013-05-12 17:30:00,
2013-05-12 11:35:00,74.7,42.9,30.01,WNW,293,2.0,4.0,32,0.00,,,0.00,Wunderground v.1.15,2013-05-12 17:35:00,
2013-05-12 11:40:00,74.7,42.9,30.01,North,5,3.0,3.0,32,0.00,,,0.00,Wunderground v.1.15,2013-05-12 17:40:00,
2013-05-12 11:45:00,75.4,42.7,30.01,North,9,2.0,4.0,31,0.00,,,0.00,Wunderground v.1.15,2013-05-12 17:45:00,
2013-05-12 11:50:00,75.5,42.7,30.00,West,259,3.0,6.0,31,0.00,,,0.00,Wunderground v.1.15,2013-05-12 17:50:00,
2013-05-12 12:00:00,74.6,41.1,30.00,NW,313,3.0,3.0,30,0.00,,,0.00,Wunderground v.1.15,2013-05-12 18:00:00,
2013-05-12 12:05:00,75.1,41.5,30.02,NNE,30,2.0,4.0,30,0.00,,,0.00,Wunderground v.1.15,2013-05-12 18:05:00,
2013-05-12 12:15:00,76.7,43.8,30.00,WNW,303,2.0,2.0,31,0.00,,,0.00,Wunderground v.1.15,2013-05-12 18:15:00,
2013-05-12 12:20:00,77.7,42.9,29.99,North,355,1.0,1.0,29,0.00,,,0.00,Wunderground v.1.15,2013-05-12 18:20:00,
2013-05-12 12:25:00,78.2,42.4,29.99,NNE,21,1.0,1.0,28,0.00,,,0.00,Wunderground v.1.15,2013-05-12 18:25:00,
2013-05-12 12:30:00,78.7,43.8,29.98,West,279,1.0,2.0,29,0.00,,,0.00,Wunderground v.1.15,2013-05-12 18:30:00,
2013-05-12 12:35:00,79.1,42.2,29.99,NNW,332,2.0,6.0,27,0.00,,,0.00,Wunderground v.1.15,2013-05-12 18:35:00,
2013-05-12 12:40:00,79.0,43.1,29.98,NW,311,4.0,5.0,28,0.00,,,0.00,Wunderground v.1.15,2013-05-12 18:40:00,
2013-05-12 12:45:00,78.7,41.9,29.98,WSW,248,4.0,5.0,27,0.00,,,0.00,Wunderground v.1.15,2013-05-12 18:45:00,
2013-05-12 12:50:00,78.7,42.8,29.98,ESE,106,2.0,2.0,28,0.00,,,0.00,Wunderground v.1.15,2013-05-12 18:50:00,
2013-05-12 12:55:00,79.4,44.4,29.98,WNW,300,2.0,2.0,29,0.00,,,0.00,Wunderground v.1.15,2013-05-12 18:55:00,
2013-05-12 13:05:00,80.2,42.2,29.97,NW,313,1.0,4.0,26,0.00,,,0.00,Wunderground v.1.15,2013-05-12 19:05:00,
2013-05-12 13:15:00,80.2,43.2,29.97,West,277,3.0,10.0,27,0.00,,,0.00,Wunderground v.1.15,2013-05-12 19:15:00,
2013-05-12 13:20:00,80.6,42.5,29.96,WNW,292,4.0,4.0,26,0.00,,,0.00,Wunderground v.1.15,2013-05-12 19:20:00,
2013-05-12 13:25:00,80.6,40.5,29.95,ENE,76,3.0,4.0,24,0.00,,,0.00,Wunderground v.1.15,2013-05-12 19:25:00,
2013-05-12 13:35:00,80.3,41.3,29.96,South,182,2.0,5.0,25,0.00,,,0.00,Wunderground v.1.15,2013-05-12 19:35:00,
2013-05-12 13:40:00,81.1,40.9,29.95,NNW,327,2.0,2.0,24,0.00,,,0.00,Wunderground v.1.15,2013-05-12 19:40:00,
2013-05-12 13:45:00,81.4,42.2,29.95,West,276,5.0,6.0,25,0.00,,,0.00,Wunderground v.1.15,2013-05-12 19:45:00,
2013-05-12 13:50:00,81.8,41.5,29.95,WNW,301,6.0,6.0,24,0.00,,,0.00,Wunderground v.1.15,2013-05-12 19:50:00,
2013-05-12 13:55:00,82.5,43.1,29.95,West,268,5.0,6.0,25,0.00,,,0.00,Wunderground v.1.15,2013-05-12 19:55:00,
2013-05-12 14:05:00,83.2,40.4,29.94,NNE,16,2.0,3.0,22,0.00,,,0.00,Wunderground v.1.15,2013-05-12 20:05:00,
2013-05-12 14:15:00,82.1,41.7,29.93,WNW,290,7.0,10.0,24,0.00,,,0.00,Wunderground v.1.15,2013-05-12 20:15:00,
2013-05-12 14:20:00,83.0,42.5,29.93,WNW,286,5.0,6.0,24,0.00,,,0.00,Wunderground v.1.15,2013-05-12 20:20:00,
2013-05-12 14:25:00,83.6,43.0,29.92,NNW,346,4.0,6.0,24,0.00,,,0.00,Wunderground v.1.15,2013-05-12 20:25:00,
2013-05-12 14:30:00,84.1,41.1,29.92,North,350,4.0,5.0,22,0.00,,,0.00,Wunderground v.1.15,2013-05-12 20:30:00,
2013-05-12 14:40:00,84.5,42.6,29.92,West,267,4.0,8.0,23,0.00,,,0.00,Wunderground v.1.15,2013-05-12 20:40:00,
2013-05-12 14:45:00,84.6,41.6,29.92,SSE,149,3.0,8.0,22,0.00,,,0.00,Wunderground v.1.15,2013-05-12 20:45:00,
2013-05-12 14:55:00,84.5,42.6,29.91,WNW,284,3.0,3.0,23,0.00,,,0.00,Wunderground v.1.15,2013-05-12 20:55:00,
2013-05-12 15:00:00,84.7,42.8,29.91,WNW,288,4.0,6.0,23,0.00,,,0.00,Wunderground v.1.15,2013-05-12 21:00:00,
2013-05-12 15:05:00,84.8,41.7,29.91,NNW,345,6.0,6.0,22,0.00,,,0.00,Wunderground v.1.15,2013-05-12 21:05:00,
2013-05-12 15:15:00,83.9,39.8,29.91,West,264,4.0,6.0,21,0.00,,,0.00,Wunderground v.1.15,2013-05-12 21:15:00,
2013-05-12 15:20:00,84.2,40.0,29.91,SE,130,3.0,3.0,21,0.00,,,0.00,Wunderground v.1.15,2013-05-12 21:20:00,
2013-05-12 15:25:00,84.9,41.8,29.90,West,271,2.0,9.0,22,0.00,,,0.00,Wunderground v.1.15,2013-05-12 21:25:00,
2013-05-12 15:30:00,84.1,41.1,29.90,West,279,6.0,11.0,22,0.00,,,0.00,Wunderground v.1.15,2013-05-12 21:30:00,
2013-05-12 15:40:00,83.2,40.4,29.91,NNE,25,4.0,4.0,22,0.00,,,0.00,Wunderground v.1.15,2013-05-12 21:40:00,
2013-05-12 15:45:00,84.1,42.3,29.90,NW,314,2.0,4.0,23,0.00,,,0.00,Wunderground v.1.15,2013-05-12 21:45:00,
2013-05-12 15:50:00,84.5,42.6,29.90,West,268,5.0,10.0,23,0.00,,,0.00,Wunderground v.1.15,2013-05-12 21:50:00,
2013-05-12 15:55:00,84.6,41.6,29.90,NNW,327,6.0,10.0,22,0.00,,,0.00,Wunderground v.1.15,2013-05-12 21:55:00,
2013-05-12 16:00:00,84.4,41.4,29.89,SW,219,4.0,4.0,22,0.00,,,0.00,Wunderground v.1.15,2013-05-12 22:00:00,
2013-05-12 16:05:00,84.5,41.5,29.91,SW,231,4.0,5.0,22,0.00,,,0.00,Wunderground v.1.15,2013-05-12 22:05:00,
2013-05-12 16:15:00,83.5,40.6,29.91,West,267,7.0,9.0,22,0.00,,,0.00,Wunderground v.1.15,2013-05-12 22:15:00,
2013-05-12 16:20:00,83.8,40.9,29.90,North,10,6.0,6.0,22,0.00,,,0.00,Wunderground v.1.15,2013-05-12 22:20:00,
2013-05-12 16:25:00,84.4,40.2,29.90,West,277,4.0,6.0,21,0.00,,,0.00,Wunderground v.1.15,2013-05-12 22:25:00,
2013-05-12 16:30:00,84.9,41.8,29.90,West,279,4.0,4.0,22,0.00,,,0.00,Wunderground v.1.15,2013-05-12 22:30:00,
2013-05-12 16:35:00,84.6,42.7,29.90,WNW,282,6.0,13.0,23,0.00,,,0.00,Wunderground v.1.15,2013-05-12 22:35:00,
2013-05-12 16:45:00,83.1,40.3,29.91,WNW,290,4.0,7.0,22,0.00,,,0.00,Wunderground v.1.15,2013-05-12 22:45:00,
2013-05-12 16:50:00,83.7,39.6,29.89,NNW,336,3.0,3.0,21,0.00,,,0.00,Wunderground v.1.15,2013-05-12 22:50:00,
2013-05-12 16:55:00,84.3,41.3,29.89,WNW,288,4.0,4.0,22,0.00,,,0.00,Wunderground v.1.15,2013-05-12 22:55:00,
2013-05-12 17:00:00,84.9,41.8,29.89,NNW,346,2.0,4.0,22,0.00,,,0.00,Wunderground v.1.15,2013-05-12 23:00:00,
2013-05-12 17:05:00,85.5,43.5,29.89,West,275,3.0,6.0,23,0.00,,,0.00,Wunderground v.1.15,2013-05-12 23:05:00,
2013-05-12 17:15:00,84.9,41.8,29.89,WNW,287,3.0,5.0,22,0.00,,,0.00,Wunderground v.1.15,2013-05-12 23:15:00,
2013-05-12 17:20:00,85.0,41.9,29.88,West,270,2.0,5.0,22,0.00,,,0.00,Wunderground v.1.15,2013-05-12 23:20:00,
2013-05-12 17:25:00,84.1,41.1,29.89,West,268,5.0,7.0,22,0.00,,,0.00,Wunderground v.1.15,2013-05-12 23:25:00,
2013-05-12 17:30:00,83.6,41.9,29.89,West,281,6.0,6.0,23,0.00,,,0.00,Wunderground v.1.15,2013-05-12 23:30:00,
2013-05-12 17:35:00,83.8,40.9,29.89,WSW,253,4.0,6.0,22,0.00,,,0.00,Wunderground v.1.15,2013-05-12 23:35:00,
2013-05-12 17:40:00,83.8,42.0,29.89,WNW,296,3.0,3.0,23,0.00,,,0.00,Wunderground v.1.15,2013-05-12 23:40:00,
2013-05-12 17:45:00,83.6,41.9,29.89,West,265,4.0,6.0,23,0.00,,,0.00,Wunderground v.1.15,2013-05-12 23:45:00,
2013-05-12 17:50:00,83.0,42.5,29.89,West,275,5.0,11.0,24,0.00,,,0.00,Wunderground v.1.15,2013-05-12 23:50:00,
2013-05-12 17:55:00,82.1,41.7,29.90,WNW,300,5.0,11.0,24,0.00,,,0.00,Wunderground v.1.15,2013-05-12 23:55:00,
2013-05-12 18:00:00,81.6,42.4,29.90,WNW,290,6.0,6.0,25,0.00,,,0.00,Wunderground v.1.15,2013-05-13 00:00:00,
2013-05-12 18:05:00,81.6,41.3,29.89,West,265,6.0,6.0,24,0.00,,,0.00,Wunderground v.1.15,2013-05-13 00:05:00,
2013-05-12 18:15:00,82.9,42.4,29.89,WNW,294,4.0,5.0,24,0.00,,,0.00,Wunderground v.1.15,2013-05-13 00:15:00,
2013-05-12 18:20:00,83.1,41.5,29.88,SW,217,3.0,9.0,23,0.00,,,0.00,Wunderground v.1.15,2013-05-13 00:20:00,
2013-05-12 18:25:00,82.9,42.4,29.88,West,275,4.0,9.0,24,0.00,,,0.00,Wunderground v.1.15,2013-05-13 00:25:00,
2013-05-12 18:30:00,82.7,41.1,29.88,West,260,5.0,6.0,23,0.00,,,0.00,Wunderground v.1.15,2013-05-13 00:30:00,
2013-05-12 18:40:00,81.8,39.2,29.88,West,273,9.0,10.0,22,0.00,,,0.00,Wunderground v.1.15,2013-05-13 00:40:00,
2013-05-12 18:50:00,81.4,40.0,29.89,WSW,248,6.0,6.0,23,0.00,,,0.00,Wunderground v.1.15,2013-05-13 00:50:00,
2013-05-12 18:55:00,81.4,41.1,29.89,NW,310,5.0,6.0,24,0.00,,,0.00,Wunderground v.1.15,2013-05-13 00:55:00,
2013-05-12 19:00:00,81.6,39.1,29.88,WNW,291,4.0,4.0,22,0.00,,,0.00,Wunderground v.1.15,2013-05-13 01:00:00,
2013-05-12 19:05:00,81.6,39.1,29.85,WSW,254,3.0,4.0,22,0.00,,,0.00,Wunderground v.1.15,2013-05-13 01:05:00,
2013-05-12 19:15:00,81.0,39.7,29.85,SW,234,3.0,4.0,23,0.00,,,0.00,Wunderground v.1.15,2013-05-13 01:15:00,
2013-05-12 19:20:00,80.4,40.3,29.85,SW,234,4.0,4.0,24,0.00,,,0.00,Wunderground v.1.15,2013-05-13 01:20:00,
2013-05-12 19:25:00,80.3,39.1,29.86,SW,234,3.0,4.0,23,0.00,,,0.00,Wunderground v.1.15,2013-05-13 01:25:00,
2013-05-12 19:30:00,80.0,40.0,29.86,WSW,245,3.0,3.0,24,0.00,,,0.00,Wunderground v.1.15,2013-05-13 01:30:00,
2013-05-12 19:35:00,79.5,39.5,29.86,WSW,244,3.0,3.0,24,0.00,,,0.00,Wunderground v.1.15,2013-05-13 01:35:00,
2013-05-12 19:40:00,79.1,39.2,29.86,WSW,244,3.0,3.0,24,0.00,,,0.00,Wunderground v.1.15,2013-05-13 01:40:00,
2013-05-12 19:50:00,78.8,41.0,29.86,WSW,244,0.0,1.0,26,0.00,,,0.00,Wunderground v.1.15,2013-05-13 01:50:00,
2013-05-12 19:55:00,78.8,41.0,29.86,WSW,245,0.0,2.0,26,0.00,,,0.00,Wunderground v.1.15,2013-05-13 01:55:00,
2013-05-12 20:00:00,78.7,40.9,29.86,WNW,296,1.0,2.0,26,0.00,,,0.00,Wunderground v.1.15,2013-05-13 02:00:00,
2013-05-12 20:05:00,78.0,40.3,29.83,West,273,2.0,2.0,26,0.00,,,0.00,Wunderground v.1.15,2013-05-13 02:05:00,
2013-05-12 20:15:00,77.0,39.5,29.83,SSW,213,0.0,0.0,26,0.00,,,0.00,Wunderground v.1.15,2013-05-13 02:15:00,
2013-05-12 20:20:00,76.6,40.1,29.83,SSW,213,0.0,0.0,27,0.00,,,0.00,Wunderground v.1.15,2013-05-13 02:20:00,
2013-05-12 20:25:00,76.1,43.3,29.84,WNW,297,0.0,0.0,31,0.00,,,0.00,Wunderground v.1.15,2013-05-13 02:25:00,
2013-05-12 20:30:00,75.2,39.8,29.84,WNW,298,0.0,0.0,28,0.00,,,0.00,Wunderground v.1.15,2013-05-13 02:30:00,
2013-05-12 20:35:00,74.6,40.2,29.84,WNW,298,0.0,0.0,29,0.00,,,0.00,Wunderground v.1.15,2013-05-13 02:35:00,
2013-05-12 20:40:00,74.2,40.8,29.85,WNW,298,0.0,1.0,30,0.00,,,0.00,Wunderground v.1.15,2013-05-13 02:40:00,
2013-05-12 20:45:00,73.2,43.9,29.85,NNE,24,1.0,1.0,35,0.00,,,0.00,Wunderground v.1.15,2013-05-13 02:45:00,
2013-05-12 20:55:00,71.2,41.4,29.86,NNE,24,1.0,2.0,34,0.00,,,0.00,Wunderground v.1.15,2013-05-13 02:55:00,
2013-05-12 21:00:00,70.6,43.1,29.87,NNE,32,1.0,3.0,37,0.00,,,0.00,Wunderground v.1.15,2013-05-13 03:00:00,
2013-05-12 21:05:00,69.5,42.1,29.85,NNE,33,2.0,3.0,37,0.00,,,0.00,Wunderground v.1.15,2013-05-13 03:05:00,
2013-05-12 21:15:00,68.0,43.4,29.87,NE,34,1.0,1.0,41,0.00,,,0.00,Wunderground v.1.15,2013-05-13 03:15:00,
2013-05-12 21:20:00,67.0,43.8,29.88,NE,34,1.0,2.0,43,0.00,,,0.00,Wunderground v.1.15,2013-05-13 03:20:00,
2013-05-12 21:30:00,65.8,42.7,29.88,NNE,31,1.0,1.0,43,0.00,,,0.00,Wunderground v.1.15,2013-05-13 03:30:00,
2013-05-12 21:35:00,65.7,42.0,29.88,NE,40,2.0,2.0,42,0.00,,,0.00,Wunderground v.1.15,2013-05-13 03:35:00,
2013-05-12 21:40:00,65.8,41.4,29.88,NE,40,1.0,2.0,41,0.00,,,0.00,Wunderground v.1.15,2013-05-13 03:40:00,
2013-05-12 21:45:00,65.8,41.4,29.88,NE,40,1.0,2.0,41,0.00,,,0.00,Wunderground v.1.15,2013-05-13 03:45:00,
2013-05-12 21:50:00,65.6,41.3,29.88,NE,40,1.0,1.0,41,0.00,,,0.00,Wunderground v.1.15,2013-05-13 03:50:00,
2013-05-12 22:00:00,65.6,40.0,29.89,NNE,30,2.0,2.0,39,0.00,,,0.00,Wunderground v.1.15,2013-05-13 04:00:00,
2013-05-12 22:05:00,65.4,39.8,29.88,NNE,30,1.0,2.0,39,0.00,,,0.00,Wunderground v.1.15,2013-05-13 04:05:00,
2013-05-12 22:15:00,64.1,39.3,29.88,NNE,30,1.0,1.0,40,0.00,,,0.00,Wunderground v.1.15,2013-05-13 04:15:00,
2013-05-12 22:20:00,63.9,39.1,29.88,NNE,30,0.0,0.0,40,0.00,,,0.00,Wunderground v.1.15,2013-05-13 04:20:00,
2013-05-12 22:25:00,63.4,39.3,29.89,NNE,30,0.0,0.0,41,0.00,,,0.00,Wunderground v.1.15,2013-05-13 04:25:00,
2013-05-12 22:30:00,63.0,40.1,29.89,NNE,30,0.0,0.0,43,0.00,,,0.00,Wunderground v.1.15,2013-05-13 04:30:00,
2013-05-12 22:35:00,62.9,39.4,29.90,NNE,30,0.0,0.0,42,0.00,,,0.00,Wunderground v.1.15,2013-05-13 04:35:00,
2013-05-12 22:40:00,63.0,38.9,29.90,NNE,30,0.0,0.0,41,0.00,,,0.00,Wunderground v.1.15,2013-05-13 04:40:00,
2013-05-12 22:45:00,63.5,38.7,29.89,NNE,30,0.0,0.0,40,0.00,,,0.00,Wunderground v.1.15,2013-05-13 04:45:00,
2013-05-12 22:50:00,63.8,39.6,29.89,NNE,30,0.0,0.0,41,0.00,,,0.00,Wunderground v.1.15,2013-05-13 04:50:00,
2013-05-12 22:55:00,63.6,41.9,29.89,NNE,30,0.0,0.0,45,0.00,,,0.00,Wunderground v.1.15,2013-05-13 04:55:00,
2013-05-12 23:00:00,62.2,41.7,29.90,NNE,30,0.0,0.0,47,0.00,,,0.00,Wunderground v.1.15,2013-05-13 05:00:00,
2013-05-12 23:05:00,60.8,40.4,29.90,NNE,30,0.0,0.0,47,0.00,,,0.00,Wunderground v.1.15,2013-05-13 05:05:00,
2013-05-12 23:15:00,59.4,40.7,29.91,NNE,30,0.0,0.0,50,0.00,,,0.00,Wunderground v.1.15,2013-05-13 05:15:00,
2013-05-12 23:20:00,59.0,40.9,29.91,NNE,30,0.0,0.0,51,0.00,,,0.00,Wunderground v.1.15,2013-05-13 05:20:00,
2013-05-12 23:25:00,58.7,40.6,29.91,NNE,30,0.0,0.0,51,0.00,,,0.00,Wunderground v.1.15,2013-05-13 05:25:00,
2013-05-12 23:35:00,59.0,41.4,29.91,NNE,30,0.0,0.0,52,0.00,,,0.00,Wunderground v.1.15,2013-05-13 05:35:00,
2013-05-12 23:40:00,59.0,41.4,29.91,NNE,30,0.0,0.0,52,0.00,,,0.00,Wunderground v.1.15,2013-05-13 05:40:00,
2013-05-12 23:45:00,59.0,41.4,29.92,NNE,30,1.0,2.0,52,0.00,,,0.00,Wunderground v.1.15,2013-05-13 05:45:00,
2013-05-12 23:50:00,58.5,41.4,29.91,NNE,30,1.0,1.0,53,0.00,,,0.00,Wunderground v.1.15,2013-05-13 05:50:00,
2013-05-12 23:55:00,58.0,41.4,29.92,NNE,30,0.0,1.0,54,0.00,,,0.00,Wunderground v.1.15,2013-05-13 05:55:00,